Weather Roundup
Issued by NWS Chicago, IL

Home | Current Version | Previous Version | Text Only | Print | Product List | Glossary On
Versions: 1 2 3 4 5 6 7 8 9 10 11 12 13 14 15 16 17 18 19 20 21 22 23 24 25 26 27 28 29 30 31 32 33 34 35 36 37 38 39 40 41 42 43 44 45 46 47 48 49 50
000
NZUS59 KLOT 031308
HRRLOT

CHICAGO AREA WEATHER ROUNDUP
NATIONAL WEATHER SERVICE CHICAGO/ROMEOVILLE IL
800 AM CDT TUE MAY 03 2016

NOTE: "FAIR" INDICATES FEW OR NO CLOUDS BELOW 12,000 FEET WITH NO
SIGNIFICANT WEATHER AND/OR OBSTRUCTIONS TO VISIBILITY.

* THESE STATIONS ARE NOT UNDER NWS QUALITY CONTROL. THEY ALSO MAY NOT
  REPORT WEATHER SUCH AS PRECIPITATION OR FOG.

ILZ005-006-012>014-019>023-031400-
NORTHEAST ILLINOIS

CITY           SKY/WX    TMP DP  RH WIND       PRES   REMARKS
OHARE          PTSUNNY   49  36  61 W7        29.97S
MIDWAY         PTSUNNY   52  34  50 W6        29.98S
AURORA         PTSUNNY   45  40  82 CALM      29.99S
LANSING*         N/A     48  38  68 CALM      29.99S
JOLIET*          N/A     52  38  60 W3        29.99S
WAUKEGAN         N/A     52  38  58 VRB6      29.95F
DUPAGE AIRPORT CLOUDY    47  39  74 CALM      29.97F
WHEELING       PTSUNNY   50  38  63 CALM      29.98F
KANKAKEE*        N/A     51  40  65 W7        30.00S
MORRIS*          N/A     49  41  73 W5        29.99S
LEWIS AIRPORT*   N/A     49  37  64 W3        29.99S
$$

WIZ051-052-058>065-066-070>072-031400-
SOUTHEAST WISCONSIN

CITY           SKY/WX    TMP DP  RH WIND       PRES   REMARKS
MILWAUKEE        N/A     53  36  52 W6        29.94F
KENOSHA*         N/A     50  38  63 SW5       29.95F
RACINE*          N/A     53  33  46 W7        29.96F
BURLINGTON       N/A     49  38  66 SW6       29.95S
WAUKESHA       SUNNY     50  37  62 CALM      29.96S
WEST BEND        N/A     52  36  54 W7        29.93S
$$

INZ001>003-010>013-019-020-031400-
NORTHWEST INDIANA

CITY           SKY/WX    TMP DP  RH WIND       PRES   REMARKS
GARY*          MOSUNNY   50  45  81 W6        29.98S
MICHIGAN CITY* NOT AVBL
RENSSELAER*    NOT AVBL
VALPARAISO       N/A     52  38  58 N3        29.98S
$$

LMZ740>746-031400-
SOUTHERN LAKE MICHIGAN

STATION/POSITION TIME  SKY/WX   TEMP WIND        PRES    VSBY
                                AIR  DIR/SP/G
                 (UTC)          (F)  (DEG/KT/KT) (MB)    (MI)
HARRISON CRIB    1200            49  290/  4/  5   N/A
BURNHAM HARBOR   1300            54  270/  7/  9   N/A
CALUMET HARBOR   1200            46  210/  1/  3 1014.7R
BURNS HARBOR     1203            47  310/  3/  6 1015.6S
MICHIGAN CITY    1200            49  310/  1/  2   N/A
$$

ABBREVIATIONS USED IN REMARKS
   TC - TEMPERATURE IN CELSIUS
  WCI - WIND CHILL INDEX
   HX - HEAT INDEX
  VSB - VISIBILITY
$$




USA.gov is the U.S. government's official web portal to all federal, state and local government web resources and services.